Starlink 33726

operational
NORAD ID: 63437 Int'l Des: 2025-069 Owner: SPXS Country: US Constellation: starlink
LEOCIRCULAR

关于 Starlink 33726

正在加载描述...

实时位置

正在加载3D地球...

即将过境

高度历史

Altitude vs Time

uPlot chart will show altitude changes over time

两行轨道根数

1 63437U 25069E 25305.47914889 .00034921 00000-0 11851-2 0 9997
2 63437 53.1594 18.1135 0001033 82.6216 277.4902 15.30213842 33728
Epoch: Nov 1, 2025 • Age: 28 hours

当前状态

高度 493.2 km
速度 7.62 km/s
星下点 -50.88°S, 33.38°E
发射日期 Apr 4, 2025
运行时间 0.5 years
类型 internet

技术详情

分类 Payload
质量 575.00 kg
干质量 530.00 kg
总质量 575.00 kg
长度 0.30 m
直径 4.10 m
跨度 29.00 m
形状 Box + pan
制造商 SPXS
平台类型 Starlink V2MO
阶段状态 In Orbit
所有者/国家 SPXS/US

大型星座

Loading constellations...